Flag for Germany Weather past 2 weeks in Landsberg am Lech, Bavaria, Germany

Now
73 °F

Scattered clouds.


Feels Like: 77 °F
Forecast: 56 / 74 °F
Wind: 2 mph from North

Location: Landsberg

Current Time: Sep 19, 2014 at 3:55:43 PM

Latest Report: Sep 19, 2014 at 3:20 PM


Visibility: N/A

Pressure: 29.98 "Hg

Humidity: 50%

Dew point: 54 °F

Location of Landsberg am LechLocation

Historic Weather in Landsberg am Lech — Graph

°F

Landsberg am Lech temperature yesterday

Maximum temperature yesterday: 75 °F (at 3:20 PM)
Minimum temperature yesterday: 52 °F (at 1:20 AM)
Average temperature yesterday: 63 °F

Past Weeks' High & Low Weather Summary

 TemperatureHumidityPressure
High77 °F (Sep 8, 4:20 PM)100% (Sep 5, 4:20 AM)30.15 "Hg (Sep 5, 4:20 AM)
Low48 °F (Sep 11, 7:20 AM)44% (Sep 6, 3:20 PM)29.92 "Hg (Sep 6, 3:20 PM)
Average59 °F85%30.02 "Hg
* Reported Sep 4 2:20 PM — Sep 19 2:20 PM, Landsberg am Lech, Weather by CustomWeather, © 2014

Note: Actual official high and low records may vary slightly from our data, if they occured in-between our weather recording intervals... More about our weather records

Advertising

Landsberg am Lech weather history for previous 24 hours

 ConditionsComfort  
Time TempWeatherWind HumidityBarometerVisibility
2:20 PM
Sep 19
73 °FPartly sunny.3 mph53%29.98 "HgN/A
1:20 PM72 °FPartly sunny.2 mph61%30.01 "HgN/A
12:20 PM70 °FBroken clouds.2 mph60%30.01 "HgN/A
11:20 AM70 °FPartly sunny.1 mph60%30.01 "HgN/A
10:20 AM66 °FPartly sunny.5 mph68%30.01 "HgN/A
8:20 AM59 °FPartly sunny.7 mph88%30.01 "HgN/A
7:20 AM54 °FPartly cloudy.3 mph94%29.98 "HgN/A
6:20 AM54 °FPassing clouds.2 mph94%29.98 "HgN/A
5:20 AM54 °FPassing clouds.6 mph94%29.98 "HgN/A
4:20 AM54 °FPassing clouds.3 mph94%29.98 "HgN/A
3:20 AM55 °FPassing clouds.2 mph94%29.98 "HgN/A
2:20 AM57 °FPassing clouds.2 mph88%29.98 "HgN/A
1:20 AM57 °FPassing clouds.2 mph94%29.98 "HgN/A
12:20 AM59 °FPassing clouds.6 mph88%29.98 "HgN/A
11:20 PM
Sep 18
61 °FPassing clouds.6 mph83%29.98 "HgN/A
10:20 PM61 °FPassing clouds.3 mph88%30.01 "HgN/A
9:20 PM63 °FRain showers. Passing clouds.12 mph83%29.98 "HgN/A
8:20 PM64 °FThundershowers. Broken clouds.5 mph83%29.98 "HgN/A
7:20 PM70 °FSprinkles. Partly sunny.3 mph64%29.95 "Hg4 mi
6:20 PM72 °FBroken clouds.6 mph61%29.95 "HgN/A
5:20 PM73 °FBroken clouds.7 mph53%29.92 "HgN/A
4:20 PM75 °FPartly sunny.3 mph44%29.92 "HgN/A
3:20 PM75 °FPartly sunny.7 mph44%29.92 "HgN/A
Weather by CustomWeather, © 2014

See weather overviewHow to use our weather pages